Regional Weather Roundup
Issued by NWS New Orleans/Baton Rouge, LA

Home | Current Version | Previous Version | Graphics & Text | Print | Product List | Glossary On
Versions: 1 2 3 4 5 6 7 8 9 10 11 12 13 14 15 16 17 18 19 20 21 22 23 24 25 26 27 28 29 30 31 32 33 34 35 36 37 38 39 40 41 42 43 44 45 46 47 48 49 50
469
ASUS44 KLIX 192110
RWRLIX
NEW ORLEANS REGIONAL WEATHER ROUNDUP
NATIONAL WEATHER SERVICE NEW ORLEANS LA
300 PM CST FRI DEC 19 2014

NOTE: "FAIR" INDICATES FEW OR NO CLOUDS BELOW 12,000 FEET WITH NO
      SIGNIFICANT WEATHER AND/OR OBSTRUCTIONS TO VISIBILITY.
      SKY/WX - SKY CONDITION AND SIGNIFICANT WEATHER.
      TMP - AIR TEMPERATURE.     DP    - DEWPOINT TEMPERATURE.
      RH  - RELATIVE HUMIDITY.   PRES  - PRESSURE.
      HI  - HEAT INDEX.          WCI   - WIND CHILL INDEX.

*  THESE STATIONS ARE NOT NWS OR FAA STATIONS AND ARE NOT UNDER
   NWS QUALITY CONTROL.

LAZ038-040-048-061>063-065>067-069-192200-
SOUTHEAST LOUISIANA

CITY           SKY/WX    TMP DP  RH WIND       PRES   REMARKS
N.O. AUDUBON     N/A     55  54  99 MISG        N/A
N.O. INTL ARPT LGT RAIN  54  51  90 NE14      30.05S
N.O. LAKEFRONT LGT RAIN  54  50  86 NE15      30.07S FOG
N.O. DOWNTOWN* CLOUDY    54  48  82 NE6       30.06R
SLIDELL        RAIN      50  48  93 N8        30.08R FOG
BATON ROUGE    RAIN      50  47  89 NE13G18   30.07R FOG
BOOTHVILLE     LGT RAIN  61  60  97 NW6       30.04R FOG
BELLE CHASSE   LGT RAIN  54  53  97 NE8       30.05S FOG
BOGALUSA*      LGT RAIN  49  46  87 NE7       30.12F
GALLIANO*      LGT RAIN  55  54  97 MISG      30.02F
NEW ROADS*     RAIN      50  49  96 N7        30.09R
GONZALES*      HVY RAIN  55  55 100 NE8       30.05R
HAMMOND*       NOT AVBL
HOUMA*         CLOUDY    55  55 100 NE6       30.03R FOG
PORT FOURCHON* CLOUDY    61  59  94 NE12      30.03F FOG

$$

MSZ070-080>082-192200-
SOUTHERN MISSISSIPPI

CITY           SKY/WX    TMP DP  RH WIND       PRES   REMARKS
MCCOMB         LGT RAIN  45  42  89 NE8       30.10S FOG
GULFPORT       RAIN      50  49  96 NE8       30.08R FOG
BILOXI         RAIN      51  51 100 NE8       30.08R FOG
PASCAGOULA     LGT RAIN  51  49  92 NE6       30.07R FOG
STENNIS ARPT*  RAIN      50  46  87 NE5       30.09F VSB 1

$$

COASTAL OBSERVATIONS
LAKE AND NEARSHORE STATIONS

STATION/POSITION TIME  TEMP    WIND        PRES    WAVE
                       AIR SEA DIR/SP/G            HT/PER
                 (UTC) (F)     (DEG/KT/KT) (MB)    (FT/S)
PASCAGOULA       2100   53      30/  6/ 11 1017.5
WAVELAND YACHT   2100   51     350/  8/ 10 1018.2
GRAND ISLE       2100   60 62   40/  7/ 11 1016.9
SOUTHWEST PASS   2100   60                 1016.7
NEW CANAL        2100   53 57   70/ 15/ 16 1018.0
SHELL BEACH      2100   54 59   30/ 15/ 17 1017.5

OFFSHORE STATIONS

STATION/POSITION TIME  TEMP    WIND        PRES    WAVE
                       AIR SEA DIR/SP/G            HT/PER
                 (UTC) (F)     (DEG/KT/KT) (MB)    (FT/S)
64 S DAUPHIN ISL 2100   68 74  120/ 21/ 25 1015.7    5/ 6

$$




USA.gov is the U.S. government's official web portal to all federal, state and local government web resources and services.